BCS225P LEPA-UBBB

Flight info

Callsign BCS225P
Flight time N/A
Altitude 32000
Route OSGAL N859 GENIO M134 LUXUR/N0485F330 UM134 ANB UG6 DIMAO UL874 OMENI/N0499F290 L30 GZO M978 BINKO N45 ROTAS/N0485F330 UN45 MONUV UP32 MIL UR32 LETSO/N0480F350 UR32 HAY UT54 SIV UA4 ERZ UB374 INDUR N161 EDATA M11 ERLEV
Aircraft B77L/H-SDE1E2E3FGHIJ2J3J4J5M1RWXY/LB1D1

Departure

Time 2026-05-05 17:08
Airport Palma de Mallorca Airport (LEPA)

Arrival

Time N/A
Airport Heydar Aliyev International Airport (UBBB)
Time Latitude Longitude Altitude Speed Heading
2026-05-05 16:23 39.55254 2.73685 43 ft 0 kts 355°
2026-05-05 16:55 39.55249 2.73685 43 ft 1 kts 355°
2026-05-05 16:56 39.55242 2.73686 43 ft 1 kts 354°
2026-05-05 16:56 39.55233 2.73687 41 ft 1 kts 354°
2026-05-05 16:56 39.55225 2.73688 43 ft 1 kts 355°
2026-05-05 16:56 39.55211 2.73689 43 ft 2 kts
2026-05-05 16:57 39.55197 2.73688 40 ft 2 kts 13°
2026-05-05 16:57 39.55182 2.73681 39 ft 2 kts 28°
2026-05-05 16:57 39.55169 2.73669 37 ft 2 kts 49°
2026-05-05 16:57 39.55158 2.73651 38 ft 3 kts 57°
2026-05-05 16:58 39.55147 2.73629 41 ft 0 kts 58°
2026-05-05 17:01 39.55148 2.73629 43 ft 1 kts 58°
2026-05-05 17:01 39.55167 2.73669 43 ft 10 kts 59°
2026-05-05 17:01 39.55170 2.73743 43 ft 6 kts 108°
2026-05-05 17:01 39.55173 2.73798 43 ft 7 kts 76°
2026-05-05 17:02 39.55182 2.73810 43 ft 2 kts 33°
2026-05-05 17:02 39.55245 2.73793 43 ft 18 kts 335°
2026-05-05 17:02 39.55391 2.73681 43 ft 28 kts 328°
2026-05-05 17:02 39.55551 2.73554 43 ft 21 kts 328°
2026-05-05 17:03 39.55651 2.73518 43 ft 13 kts 28°
2026-05-05 17:03 39.55707 2.73606 43 ft 13 kts 59°
2026-05-05 17:03 39.55752 2.73706 43 ft 13 kts 58°
2026-05-05 17:03 39.55799 2.73804 43 ft 13 kts 58°
2026-05-05 17:04 39.55845 2.73903 43 ft 13 kts 58°
2026-05-05 17:04 39.55892 2.74002 43 ft 13 kts 58°
2026-05-05 17:04 39.55938 2.74100 43 ft 13 kts 58°
2026-05-05 17:04 39.55985 2.74198 43 ft 13 kts 58°
2026-05-05 17:05 39.56032 2.74299 43 ft 14 kts 59°
2026-05-05 17:05 39.56087 2.74413 43 ft 16 kts 49°
2026-05-05 17:05 39.56187 2.74430 43 ft 16 kts 333°
2026-05-05 17:05 39.56247 2.74322 43 ft 16 kts 259°
2026-05-05 17:06 39.56219 2.74250 43 ft 0 kts 239°
2026-05-05 17:06 39.56219 2.74248 43 ft 2 kts 239°
2026-05-05 17:07 39.56148 2.74098 43 ft 48 kts 238°
2026-05-05 17:07 39.55852 2.73471 43 ft 113 kts 239°
2026-05-05 17:07 39.55340 2.72390 43 ft 165 kts 239°
2026-05-05 17:07 39.54707 2.71074 384 ft 175 kts 238°
2026-05-05 17:08 39.54055 2.69740 1000 ft 176 kts 238°
2026-05-05 17:08 39.53415 2.68413 1644 ft 171 kts 239°
2026-05-05 17:08 39.52772 2.67038 1897 ft 189 kts 239°
2026-05-05 17:08 39.52055 2.65523 2100 ft 208 kts 239°
2026-05-05 17:09 39.51257 2.63853 2315 ft 229 kts 239°
2026-05-05 17:09 39.50399 2.62068 2795 ft 237 kts 239°
2026-05-05 17:09 39.49306 2.60449 3228 ft 248 kts 215°
2026-05-05 17:09 39.47765 2.59352 3650 ft 256 kts 212°
2026-05-05 17:10 39.46209 2.58214 4370 ft 257 kts 214°
2026-05-05 17:10 39.44663 2.57057 5135 ft 258 kts 214°
2026-05-05 17:10 39.43012 2.56137 5670 ft 267 kts 191°
2026-05-05 17:10 39.41151 2.56504 6258 ft 282 kts 155°
2026-05-05 17:11 39.39646 2.58146 6878 ft 286 kts 134°
2026-05-05 17:11 39.38297 2.60075 7375 ft 292 kts 137°
2026-05-05 17:11 39.36865 2.61938 8044 ft 292 kts 139°
2026-05-05 17:11 39.35419 2.63783 8754 ft 292 kts 140°
2026-05-05 17:12 39.33963 2.65618 9419 ft 293 kts 141°
2026-05-05 17:12 39.32489 2.67454 10038 ft 296 kts 141°
2026-05-05 17:12 39.30996 2.69299 10365 ft 310 kts 142°
2026-05-05 17:12 39.29355 2.71315 10518 ft 332 kts 142°
2026-05-05 17:13 39.27655 2.73407 10697 ft 353 kts 141°
2026-05-05 17:13 39.25827 2.75660 10915 ft 372 kts 141°
2026-05-05 17:13 39.23929 2.78005 11435 ft 383 kts 141°
2026-05-05 17:13 39.21990 2.80398 11917 ft 387 kts 141°
2026-05-05 17:14 39.20035 2.82800 11893 ft 385 kts 142°
2026-05-05 17:14 39.17878 2.84755 11901 ft 376 kts 162°
2026-05-05 17:14 39.15397 2.85630 11917 ft 369 kts 173°
2026-05-05 17:14 39.12869 2.86391 12342 ft 377 kts 170°
2026-05-05 17:15 39.10329 2.87270 13241 ft 378 kts 169°
2026-05-05 17:15 39.07784 2.88168 14049 ft 381 kts 169°
2026-05-05 17:15 39.05211 2.89063 14709 ft 386 kts 170°
2026-05-05 17:15 39.02597 2.89964 15359 ft 391 kts 170°
2026-05-05 17:16 38.99951 2.90871 16032 ft 396 kts 170°
2026-05-05 17:16 38.97276 2.91785 16688 ft 400 kts 171°
2026-05-05 17:16 38.94568 2.92709 17344 ft 405 kts 171°
2026-05-05 17:16 38.91829 2.93643 17993 ft 410 kts 171°
2026-05-05 17:17 38.89056 2.94589 18588 ft 414 kts 171°
2026-05-05 17:17 38.86264 2.95542 19194 ft 417 kts 171°
2026-05-05 17:17 38.83452 2.96502 19760 ft 420 kts 171°
2026-05-05 17:17 38.80620 2.97468 20340 ft 423 kts 171°
2026-05-05 17:18 38.77765 2.98441 20919 ft 426 kts 171°
2026-05-05 17:18 38.74929 2.99406 21495 ft 429 kts 171°
2026-05-05 17:18 38.71993 3.00404 22061 ft 432 kts 171°
2026-05-05 17:18 38.69115 3.01382 22631 ft 435 kts 171°
2026-05-05 17:19 38.66175 3.02380 23179 ft 439 kts 171°
2026-05-05 17:19 38.63216 3.03384 23697 ft 442 kts 171°
2026-05-05 17:19 38.60234 3.04394 24120 ft 445 kts 171°
2026-05-05 17:19 38.57230 3.05412 24575 ft 448 kts 171°
2026-05-05 17:20 38.54219 3.06432 25127 ft 448 kts 171°
2026-05-05 17:20 38.51199 3.07454 25625 ft 450 kts 171°
2026-05-05 17:20 38.48166 3.08478 26043 ft 453 kts 171°
2026-05-05 17:20 38.45108 3.09510 26451 ft 456 kts 171°
2026-05-05 17:21 38.42026 3.10549 26880 ft 459 kts 171°
2026-05-05 17:21 38.38930 3.11593 27324 ft 462 kts 171°
2026-05-05 17:21 38.35815 3.12642 27772 ft 464 kts 171°
2026-05-05 17:22 38.30006 3.16466 28301 ft 495 kts 141°
2026-05-05 17:22 38.27835 3.19934 28698 ft 510 kts 125°
2026-05-05 17:22 38.26410 3.24097 29072 ft 518 kts 113°
2026-05-05 17:22 38.25249 3.28456 29330 ft 522 kts 113°
2026-05-05 17:23 38.24054 3.32833 29618 ft 525 kts 114°
2026-05-05 17:23 38.22803 3.37188 30075 ft 523 kts 115°
2026-05-05 17:23 38.21521 3.41507 30559 ft 520 kts 115°
2026-05-05 17:23 38.20223 3.45786 31033 ft 517 kts 116°
2026-05-05 17:24 38.18905 3.50035 31423 ft 516 kts 116°
2026-05-05 17:24 38.17577 3.54269 31789 ft 516 kts 116°
2026-05-05 17:24 38.16246 3.58500 32151 ft 515 kts 116°
2026-05-05 17:24 38.14918 3.62725 32529 ft 514 kts 116°
2026-05-05 17:25 38.13596 3.66936 32915 ft 513 kts 116°
2026-05-05 17:25 38.12722 3.69722 33151 ft 512 kts 116°
2026-05-05 17:25 38.10967 3.75320 33735 ft 508 kts 116°
2026-05-05 17:25 38.09658 3.79495 33896 ft 511 kts 116°
2026-05-05 17:26 38.08340 3.83687 33943 ft 512 kts 116°